Fullerton, CA

1:28 AM PST on November 18, 2017 (GMT -0800)
Fullerton Municipal

Weather History for KFUL - July, 2013

Change the Weather History Date:

Thursday, July 25, 2013

  Actual Average Record
Temperature  
Mean Temperature 76 °F 74 °F  
Max Temperature 85 °F 84 °F 95 °F (2016)
Min Temperature 66 °F 65 °F 61 °F (2010)
Degree Days  
Heating Degree Days 0 0  
Month to date heating degree days 0 0  
Since 1 June heating degree days 0 2  
Since 1 July heating degree days 0 0  
Cooling Degree Days 11 10  
Month to date cooling degree days 311 214  
Year to date cooling degree days 941 482  
Since 1 June cooling degree days 586 359  
Growing Degree Days 25 (Base 50)    
Moisture  
Dew Point 59 °F    
Average Humidity 61    
Maximum Humidity 78    
Minimum Humidity 44    
Precipitation  
Precipitation 0.00 in 0.00 in 0.00 in (2017)
Month to date precipitation T 0.03  
Year to date precipitation 2.53 9.68  
Since 1 July precipitation T  
Snow  
Snow 0.00 in - - ()
Month to date snowfall 0.0  
Year to date snowfall 0.0  
Snow Depth 0.00 in    
Sea Level Pressure  
Sea Level Pressure 29.95 in    
Wind  
Wind Speed 2 mph (WSW)    
Max Wind Speed 12 mph    
Max Gust Speed 14 mph    
Visibility 9 miles    
Events      
T = Trace of Precipitation, MM = Missing Value Source: NWS Daily Summary

Daily Weather History Graph

Daily Weather History Graph

Search for Another Location

Airport or City:

Trip Planner

Search our weather history database for the weather conditions in past years. The results will help you decide how hot, cold, wet, or windy it might be!

Date:

Astronomy

Jul. 25, 2013 Rise Set
Actual Time 5:58 AM PDT 7:57 PM PDT
Civil Twilight 5:31 AM PDT 8:25 PM PDT
Nautical Twilight 4:57 AM PDT 8:58 PM PDT
Astronomical Twilight 4:21 AM PDT 9:34 PM PDT
Moon 9:55 PM PDT (7/25) 9:20 AM PDT (7/25)
Length of Visible Light 14h 54m
Length of Day
13h 58m
Waning Gibbous, 87% of the Moon is Illuminated
Jul 25
Waning Gibbous
Jul 29
Last Quarter
Aug 6
New
Aug 14
First Quarter
Aug 20
Full

Hourly Weather History & Observations

Time (PDT) Temp. Heat Index Dew Point Humidity Pressure Visibility Wind Dir Wind Speed Gust Speed Precip Events Conditions
12:53 AM 68.0 °F - 57.9 °F 70% 29.94 in 10.0 mi Calm Calm - N/A   Clear
1:53 AM 68.0 °F - 57.9 °F 70% 29.93 in 10.0 mi West 3.5 mph - N/A   Clear
2:53 AM 66.9 °F - 59.0 °F 76% 29.93 in 10.0 mi Calm Calm - N/A   Partly Cloudy
3:53 AM 66.9 °F - 57.9 °F 73% 29.92 in 10.0 mi Calm Calm - N/A   Clear
4:53 AM 66.0 °F - 57.9 °F 75% 29.93 in 9.0 mi Calm Calm - N/A   Clear
5:37 AM 66.2 °F - 57.2 °F 73% 29.93 in 9.0 mi Calm Calm - N/A   Mostly Cloudy
5:53 AM 66.9 °F - 57.9 °F 73% 29.94 in 9.0 mi Calm Calm - N/A   Overcast
6:53 AM 68.0 °F - 59.0 °F 73% 29.95 in 7.0 mi Calm Calm - N/A   Overcast
7:53 AM 68.0 °F - 59.0 °F 73% 29.96 in 6.0 mi Calm Calm - N/A   Haze
8:53 AM 70.0 °F - 60.1 °F 71% 29.97 in 6.0 mi Calm Calm - N/A   Haze
9:25 AM 71.6 °F - 60.8 °F 69% 29.97 in 7.0 mi South 4.6 mph - N/A   Overcast
9:53 AM 72.0 °F - 60.1 °F 66% 29.97 in 7.0 mi Variable 4.6 mph - N/A   Overcast
10:11 AM 73.4 °F - 60.8 °F 65% 29.98 in 7.0 mi South 6.9 mph - N/A   Scattered Clouds
10:53 AM 75.0 °F - 60.1 °F 60% 29.97 in 8.0 mi Calm Calm - N/A   Clear
11:53 AM 79.0 °F - 60.1 °F 52% 29.97 in 10.0 mi Variable 3.5 mph - N/A   Clear
12:53 PM 81.0 °F 81.1 °F 57.9 °F 45% 29.96 in 10.0 mi SW 5.8 mph - N/A   Clear
1:53 PM 81.0 °F 81.1 °F 57.9 °F 45% 29.96 in 10.0 mi Variable 5.8 mph - N/A   Clear
2:53 PM 82.0 °F 82.1 °F 59.0 °F 45% 29.95 in 10.0 mi SSW 6.9 mph - N/A   Clear
3:53 PM 82.0 °F 82.4 °F 60.1 °F 47% 29.94 in 10.0 mi SW 5.8 mph - N/A   Clear
4:53 PM 84.0 °F 84.0 °F 60.1 °F 44% 29.91 in 10.0 mi South 5.8 mph - N/A   Clear
5:53 PM 81.0 °F 81.6 °F 60.1 °F 49% 29.91 in 10.0 mi West 5.8 mph - N/A   Clear
6:53 PM 78.1 °F - 60.1 °F 54% 29.93 in 10.0 mi Variable 5.8 mph - N/A   Clear
7:53 PM 73.9 °F - 59.0 °F 59% 29.96 in 10.0 mi Variable 5.8 mph - N/A   Clear
8:53 PM 71.1 °F - 57.9 °F 63% 29.98 in 10.0 mi Variable 3.5 mph - N/A   Clear
9:53 PM 71.1 °F - 59.0 °F 66% 30.00 in 10.0 mi WNW 4.6 mph - N/A   Clear
10:53 PM 70.0 °F - 57.9 °F 65% 30.01 in 10.0 mi WNW 3.5 mph - N/A   Clear
11:53 PM 72.0 °F - 57.9 °F 61% 30.00 in 10.0 mi WNW 3.5 mph - N/A   Clear